Location: Casilda
(33.0440°S, 61.1680°W)
Time: 16:33:53
(UTC-03:00)

ISS - Pass Details

Date: 24 January 2022
Orbit: 413 x 422 km, 51.6° (Epoch: 19 January)

Event Time Altitude Azimuth Distance (km) Brightness Sun altitude
Exits shadow 05:40:13 - 275° (W) 1,587 -1.4 -8.3°
Reaches altitude 10° 05:40:24 10° 273° (W) 1,525 -1.5 -8.3°
Maximum altitude 05:43:17 24° 216° (SW) 929 -2.1 -7.8°
Drops below altitude 10° 05:46:11 10° 159° (SSE) 1,538 -0.1 -7.2°
Sets 05:48:34 0° 145° (SE) 2,410 1.4 -6.8°
